Weather History for Shearwater RCS, Canada

Change the Weather History Date:

Monday, December 2, 2013

  Actual Average Record
Temperature  
Mean Temperature 39 °F -  
Max Temperature 44 °F - - ()
Min Temperature 34 °F - - ()
Degree Days  
Heating Degree Days 26    
Moisture  
Dew Point 41 °F    
Average Humidity 99    
Maximum Humidity 99    
Minimum Humidity 96    
Precipitation  
Precipitation 0.02 in - - ()
Sea Level Pressure  
Sea Level Pressure 30.08 in    
Wind  
Wind Speed 7 mph ()    
Max Wind Speed 10 mph    
Max Gust Speed -    
T = Trace of Precipitation, MM = Missing Value Source: Averaged Metar Reports

Daily Weather History Graph

Daily Weather History Graph

Search for Another Location

Airport:

Trip Planner

Search our weather history database for the weather conditions in past years. The results will help you decide how hot, cold, wet, or windy it might be!

Date:

Astronomy

Dec. 02, 2013 Rise Set
Actual Time 7:32 AM AST 4:34 PM AST
Civil Twilight 6:59 AM AST 5:07 PM AST
Nautical Twilight 6:22 AM AST 5:44 PM AST
Astronomical Twilight 5:47 AM AST 6:19 PM AST
Moon 6:50 AM AST (12/2) 4:35 PM AST (12/2)
Length of Visible Light 10h 08m
Length of Day
9h 02m
Waning Crescent, 0% of the Moon is Illuminated
Dec 2
Waning Crescent
Dec 2
New
Dec 9
First Quarter
Dec 17
Full
Dec 25
Last Quarter

Hourly Weather History & Observations

Time (AST) Temp. Windchill Dew Point Humidity Pressure Visibility Wind Dir Wind Speed Gust Speed Precip Events Conditions
12:00 AM 37.2 °F 32.6 °F 36.5 °F 97% 30.22 in - NE 5.8 mph - N/A   Unknown
1:00 AM 37.6 °F 33.1 °F 37.0 °F 98% 30.19 in - NE 5.8 mph - N/A   Unknown
2:00 AM 38 °F - 37 °F 96% 30.18 in - NE 6.9 mph - -  
2:00 AM 37.8 °F 31.8 °F 37.4 °F 99% 30.18 in - NE 8.1 mph - 0.01 in   Unknown
3:00 AM 38.1 °F 31.7 °F 37.8 °F 99% 30.17 in - ENE 9.2 mph - N/A   Unknown
4:00 AM 38.7 °F 32.9 °F 38.3 °F 99% 30.15 in - NE 8.1 mph - N/A   Unknown
5:00 AM 39.2 °F 32.5 °F 38.8 °F 99% 30.14 in - NE 10.4 mph - N/A   Unknown
6:00 AM 38.8 °F 33.2 °F 38.5 °F 99% 30.13 in - NE 8.1 mph - N/A   Unknown
7:00 AM 38.7 °F 32.4 °F 38.3 °F 99% 30.13 in - NNE 9.2 mph - N/A   Unknown
8:00 AM 39 °F - 39 °F 98% 30.12 in - NNE 8.1 mph - -  
8:00 AM 39.0 °F 33.4 °F 38.7 °F 99% 30.12 in - NE 8.1 mph - N/A   Unknown
9:00 AM 39.4 °F 33.8 °F 39.0 °F 99% 30.12 in - NNE 8.1 mph - N/A   Unknown
10:00 AM 40.6 °F 34.8 °F 40.3 °F 99% 30.12 in - NE 9.2 mph - N/A   Unknown
11:00 AM 41.5 °F 35.4 °F 41.2 °F 99% 30.10 in - ENE 10.4 mph - N/A   Unknown
1:00 PM 43.3 °F 37.7 °F 42.8 °F 98% 30.05 in - NE 10.4 mph - N/A   Unknown
2:00 PM 44 °F - 44 °F 97% 30.05 in - ENE 6.9 mph - -  
2:00 PM 44.1 °F 40.1 °F 43.5 °F 98% 30.05 in - ENE 6.9 mph - N/A   Unknown
3:00 PM 43.9 °F 38.3 °F 43.5 °F 99% 30.04 in - NE 10.4 mph - N/A   Unknown
4:00 PM 43.9 °F 39.3 °F 43.5 °F 99% 30.03 in - NE 8.1 mph - N/A   Unknown
5:00 PM 43.5 °F 39.4 °F 43.2 °F 99% 30.01 in - NE 6.9 mph - N/A   Unknown
6:00 PM 43.3 °F 39.2 °F 43.0 °F 99% 30.00 in - NE 6.9 mph - 0.01 in   Unknown
7:00 PM 43.2 °F 39.0 °F 42.8 °F 99% 30.00 in - NE 6.9 mph - N/A   Unknown
8:00 PM 43 °F - 43 °F 99% 29.99 in - NE 4.6 mph - -  
8:00 PM 43.2 °F 40.5 °F 42.8 °F 99% 29.99 in - NE 4.6 mph - N/A   Unknown
9:00 PM 43.3 °F 39.2 °F 43.0 °F 99% 29.99 in - NE 6.9 mph - N/A   Unknown
10:00 PM 43.3 °F 39.9 °F 43.2 °F 99% 29.98 in - North 5.8 mph - N/A   Unknown
11:00 PM 42.6 °F - 42.4 °F 99% 29.97 in - NW 2.3 mph - N/A   Unknown